This is the latest recevied weather packets stored in our database for station/object KY4LEX. If no packets are shown the sender has not sent any weather packets the latest 10 day(s).
| Time | Temp. | Humidity | Pressure | Rain* | Wind** | Luminosity | Snow |
|---|---|---|---|---|---|---|---|
| 1777593296 | 13.89° C | 46% | 1020 hPa | 0 mm | - | 16 W/m² | - |
| 1777592991 | 13.89° C | 43% | 1020.3 hPa | 0 mm | - | 18 W/m² | - |
| 1777592686 | 14.44° C | 44% | 1020.2 hPa | 0 mm | - | 20 W/m² | - |
| 1777592381 | 15° C | 49% | 1020.2 hPa | 0 mm | - | 22 W/m² | - |
| 1777592077 | 15° C | 46% | 1020 hPa | 0 mm | - | 24 W/m² | - |
| 1777591775 | 15° C | 40% | 1020.2 hPa | 0 mm | - | 26 W/m² | - |
| 1777591470 | 15° C | 44% | 1020.2 hPa | 0 mm | - | 28 W/m² | - |
| 1777591167 | 15° C | 40% | 1020.1 hPa | 0 mm | - | 30 W/m² | - |
| 1777590861 | 15.56° C | 38% | 1020.3 hPa | 0 mm | - | 31 W/m² | - |
| 1777590558 | 15.56° C | 39% | 1020.1 hPa | 0 mm | - | 31 W/m² | - |
| 1777590254 | 15.56° C | 39% | 1020.4 hPa | 0 mm | - | 31 W/m² | - |
| 1777589952 | 15.56° C | 39% | 1020.3 hPa | 0 mm | - | 33 W/m² | - |
| 1777589648 | 16.67° C | 35% | 1020.3 hPa | 0 mm | - | 43 W/m² | - |
| 1777589345 | 17.78° C | 35% | 1020.2 hPa | 0 mm | - | 113 W/m² | - |
| 1777589042 | 17.78° C | 33% | 1020.3 hPa | 0 mm | - | 93 W/m² | - |
| 1777588738 | 17.22° C | 34% | 1020.5 hPa | 0 mm | - | 140 W/m² | - |
| 1777588434 | 17.78° C | 33% | 1020.4 hPa | 0 mm | - | 148 W/m² | - |
| 1777588129 | 17.22° C | 34% | 1020.4 hPa | 0 mm | - | 164 W/m² | - |
| 1777587826 | 17.78° C | 33% | 1020.2 hPa | 0 mm | - | 177 W/m² | - |
| 1777587525 | 18.33° C | 33% | 1020.5 hPa | 0 mm | - | 192 W/m² | - |
| 1777587221 | 18.33° C | 35% | 1020.2 hPa | 0 mm | - | 205 W/m² | - |
| 1777586917 | 17.78° C | 39% | 1020.4 hPa | 0 mm | - | 135 W/m² | - |
| 1777586613 | 18.33° C | 31% | 1020.5 hPa | 0 mm | - | 231 W/m² | - |
| 1777586309 | 18.33° C | 32% | 1020.2 hPa | 0 mm | - | 246 W/m² | - |
| 1777586007 | 18.33° C | 32% | 1020 hPa | 0 mm | - | 260 W/m² | - |
* Rain latest hour (hover to see other rain measurements)
** Current wind speed in m/s (hover to see current wind gust speed)